Location: Boissi�res
(45.2500°N, 2.3667°E)
Time: 07:27:33
(UTC+00:00)

Cosmos 1869 Rocket - Pass Details

Date: 03 March 2021
Orbit: 605 x 633 km, 82.5° (Epoch: 19 April)

Event Time Altitude Azimuth Distance (km) Brightness Sun altitude
Rises 19:49:49 0° 193° (SSW) 2,857 7.0 -23.4°
Reaches altitude 10° 19:52:02 10° 196° (SSW) 1,961 6.1 -23.7°
Maximum altitude 19:56:21 69° 280° (W) 661 3.8 -24.5°
Drops below altitude 10° 20:00:45 10° 4° (N) 1,995 6.3 -25.2°
Sets 20:03:01 0° 7° (N) 2,910 7.1 -25.6°
